sat.trackr.live / text

‹ back to catalog

STARLINK-36980

NORAD 68146 · 2026-049E

PAYLOAD ACTIVE UNKNOWN

§ Identity

Operator
Country
US
Launch date
2026-03-13
Launch site
AFWTR
Launch vehicle
Mass (kg)
RCS (m²)

Purposes: comms

External: N2YO · Heavens-Above · Gunter

§ Orbital elements

Epoch: 2026-09-20T03:55:41.902752Z

Period
93.91 min
Inclination
97.2846°
Eccentricity
0.0001588
Mean motion
15.33447074 rev/d
Perigee alt
464.5 km
Apogee alt
466.6 km
Semi-major
6,843.7 km
B*
4.8577e-4
RAAN
283.1893°
Arg perigee
94.1682°
Mean anomaly
265.9743°
Rev number
2,945

§ Raw data

STARLINK-369801 68146U 26049E   26263.16367943  .00015641  00000+0  48577-3 0  99942 68146  97.2846 283.1893 0001588  94.1682 265.9743 15.33447074 29453

JSON: /api/v1/satellites/68146 · /tle

For live sub-satellite position, see the globe view (requires WebGL).

§ Visibility from observer

Set your observer location to see the next 7 days of passes ≥ 10°. The values pass through the URL so the page stays shareable.

No JS? Fill the form by hand. The geolocation button needs JavaScript.